TimePDT,TemperatureF,Dew PointF,Humidity,Sea Level PressureIn,VisibilityMPH,Wind Direction,Wind SpeedMPH,Gust SpeedMPH,PrecipitationIn,Events,Conditions,WindDirDegrees,DateUTC
12:15 AM,62.6,57.2,82,29.77,10.0,NNE,3.5,-,N/A,,Scattered Clouds,20,2013-09-15 07:15:00
12:35 AM,62.6,59.0,88,29.77,10.0,Calm,Calm,-,N/A,,Overcast,0,2013-09-15 07:35:00
12:55 AM,62.6,59.0,88,29.77,10.0,Calm,Calm,-,N/A,,Overcast,0,2013-09-15 07:55:00
1:15 AM,62.6,57.2,82,29.77,10.0,Calm,Calm,-,N/A,,Overcast,0,2013-09-15 08:15:00
1:35 AM,62.6,59.0,88,29.76,10.0,Calm,Calm,-,N/A,,Overcast,0,2013-09-15 08:35:00
1:55 AM,62.6,59.0,88,29.77,10.0,NW,3.5,-,N/A,,Overcast,320,2013-09-15 08:55:00
2:15 AM,62.6,59.0,88,29.77,10.0,WNW,3.5,-,N/A,,Overcast,290,2013-09-15 09:15:00
2:35 AM,62.6,59.0,88,29.77,10.0,WNW,3.5,-,N/A,,Overcast,290,2013-09-15 09:35:00
2:55 AM,62.6,59.0,88,29.77,10.0,West,4.6,-,N/A,,Overcast,270,2013-09-15 09:55:00
3:15 AM,62.6,57.2,82,29.78,10.0,West,4.6,-,N/A,,Overcast,270,2013-09-15 10:15:00
3:35 AM,62.6,57.2,82,29.77,10.0,Calm,Calm,-,N/A,,Overcast,0,2013-09-15 10:35:00
3:55 AM,62.6,57.2,82,29.78,10.0,West,4.6,-,N/A,,Overcast,270,2013-09-15 10:55:00
4:15 AM,62.6,57.2,82,29.77,10.0,WNW,3.5,-,N/A,,Overcast,290,2013-09-15 11:15:00
4:35 AM,62.6,57.2,82,29.77,10.0,WNW,3.5,-,N/A,,Overcast,290,2013-09-15 11:35:00
4:55 AM,62.6,55.4,77,29.77,10.0,Calm,Calm,-,N/A,,Overcast,0,2013-09-15 11:55:00
5:15 AM,62.6,57.2,82,29.77,10.0,Calm,Calm,-,N/A,,Overcast,0,2013-09-15 12:15:00
5:35 AM,62.6,57.2,82,29.77,10.0,Calm,Calm,-,N/A,,Overcast,0,2013-09-15 12:35:00
5:55 AM,62.6,57.2,82,29.77,10.0,Calm,Calm,-,N/A,,Overcast,0,2013-09-15 12:55:00
6:15 AM,62.6,55.4,77,29.77,10.0,Calm,Calm,-,N/A,Thunderstorm,Overcast,0,2013-09-15 13:15:00
6:35 AM,62.6,55.4,77,29.78,10.0,Calm,Calm,-,N/A,Thunderstorm,Overcast,0,2013-09-15 13:35:00
6:55 AM,62.6,55.4,77,29.78,10.0,Calm,Calm,-,N/A,,Overcast,0,2013-09-15 13:55:00
7:15 AM,62.6,57.2,82,29.78,10.0,Calm,Calm,-,N/A,,Overcast,0,2013-09-15 14:15:00
7:35 AM,62.6,57.2,82,29.79,10.0,Calm,Calm,-,N/A,,Overcast,0,2013-09-15 14:35:00
7:55 AM,62.6,57.2,82,29.79,10.0,Calm,Calm,-,N/A,,Overcast,0,2013-09-15 14:55:00
8:15 AM,62.6,55.4,77,29.78,10.0,Calm,Calm,-,N/A,,Overcast,0,2013-09-15 15:15:00
8:35 AM,62.6,55.4,77,29.78,10.0,Calm,Calm,-,N/A,,Overcast,0,2013-09-15 15:35:00
8:55 AM,62.6,55.4,77,29.79,10.0,Calm,Calm,-,N/A,,Overcast,0,2013-09-15 15:55:00
9:15 AM,62.6,55.4,77,29.79,10.0,Calm,Calm,-,N/A,,Overcast,0,2013-09-15 16:15:00
9:35 AM,62.6,55.4,77,29.80,10.0,SSE,3.5,-,N/A,,Overcast,160,2013-09-15 16:35:00
9:55 AM,64.4,55.4,73,29.80,10.0,Calm,Calm,-,N/A,,Overcast,0,2013-09-15 16:55:00
10:15 AM,64.4,55.4,73,29.81,10.0,Calm,Calm,-,N/A,,Overcast,0,2013-09-15 17:15:00
10:35 AM,64.4,55.4,73,29.81,10.0,Calm,Calm,-,N/A,,Overcast,0,2013-09-15 17:35:00
10:55 AM,64.4,57.2,77,29.81,10.0,Calm,Calm,-,N/A,,Overcast,0,2013-09-15 17:55:00
11:15 AM,64.4,57.2,77,29.81,10.0,Calm,Calm,-,N/A,Thunderstorm,Overcast,0,2013-09-15 18:15:00
11:35 AM,64.4,57.2,77,29.81,10.0,Calm,Calm,-,N/A,,Overcast,0,2013-09-15 18:35:00
11:55 AM,64.4,57.2,77,29.82,10.0,SSE,3.5,-,N/A,,Overcast,150,2013-09-15 18:55:00
12:15 PM,64.4,57.2,77,29.82,10.0,SSE,3.5,-,N/A,,Overcast,160,2013-09-15 19:15:00
12:35 PM,64.4,57.2,77,29.82,10.0,SSE,4.6,-,N/A,,Overcast,160,2013-09-15 19:35:00
12:55 PM,64.4,57.2,77,29.82,9.0,SE,4.6,-,N/A,,Overcast,130,2013-09-15 19:55:00
1:15 PM,64.4,59.0,83,29.83,10.0,SSE,5.8,-,N/A,Thunderstorm,Overcast,160,2013-09-15 20:15:00
1:35 PM,64.4,59.0,83,29.83,10.0,SSE,4.6,-,N/A,,Overcast,160,2013-09-15 20:35:00
1:55 PM,64.4,59.0,83,29.83,9.0,SE,3.5,-,N/A,,Overcast,140,2013-09-15 20:55:00
2:15 PM,64.4,59.0,83,29.83,8.0,SSE,5.8,-,N/A,,Overcast,160,2013-09-15 21:15:00
2:35 PM,64.4,60.8,88,29.83,3.0,South,3.5,-,N/A,,Overcast,170,2013-09-15 21:35:00
2:55 PM,62.6,60.8,94,29.83,1.5,South,5.8,-,0.02,,Overcast,180,2013-09-15 21:55:00
3:15 PM,64.4,60.8,88,29.84,3.0,South,3.5,-,N/A,,Overcast,180,2013-09-15 22:15:00
3:35 PM,64.4,60.8,88,29.84,2.0,South,6.9,-,N/A,,Overcast,190,2013-09-15 22:35:00
3:55 PM,62.6,60.8,94,29.84,1.2,South,6.9,-,0.01,,Overcast,170,2013-09-15 22:55:00
4:15 PM,62.6,59.0,88,29.84,5.0,SE,6.9,-,N/A,,Overcast,140,2013-09-15 23:15:00
4:35 PM,64.4,60.8,88,29.84,10.0,SE,5.8,-,N/A,,Overcast,140,2013-09-15 23:35:00
4:55 PM,64.4,60.8,88,29.84,10.0,SSE,5.8,-,N/A,,Overcast,150,2013-09-15 23:55:00
5:15 PM,64.4,60.8,88,29.84,8.0,WNW,5.8,-,N/A,,Overcast,300,2013-09-16 00:15:00
5:35 PM,62.6,59.0,88,29.84,10.0,North,3.5,-,0.01,,Overcast,350,2013-09-16 00:35:00
5:55 PM,62.6,59.0,88,29.85,10.0,North,4.6,-,0.01,,Overcast,350,2013-09-16 00:55:00
6:15 PM,64.4,59.0,83,29.85,10.0,North,3.5,-,N/A,,Overcast,10,2013-09-16 01:15:00
6:35 PM,64.4,59.0,83,29.86,10.0,Calm,Calm,-,N/A,,Overcast,0,2013-09-16 01:35:00
6:55 PM,64.4,59.0,83,29.86,10.0,Calm,Calm,-,N/A,,Overcast,0,2013-09-16 01:55:00
7:15 PM,62.6,57.2,82,29.86,3.0,NW,3.5,-,N/A,,Overcast,320,2013-09-16 02:15:00
7:35 PM,62.6,59.0,88,29.87,10.0,Calm,Calm,-,N/A,,Overcast,0,2013-09-16 02:35:00
7:55 PM,62.6,57.2,82,29.87,10.0,North,3.5,-,N/A,,Overcast,10,2013-09-16 02:55:00
8:15 PM,62.6,57.2,82,29.87,10.0,Calm,Calm,-,N/A,,Overcast,0,2013-09-16 03:15:00
8:35 PM,62.6,57.2,82,29.89,7.0,NNE,4.6,-,0.01,,Overcast,30,2013-09-16 03:35:00
8:55 PM,60.8,57.2,88,29.89,5.0,Calm,Calm,-,0.03,,Overcast,0,2013-09-16 03:55:00
9:15 PM,60.8,57.2,88,29.90,5.0,Calm,Calm,-,0.01,,Overcast,0,2013-09-16 04:15:00
9:35 PM,60.8,57.2,88,29.90,10.0,Calm,Calm,-,0.02,,Overcast,0,2013-09-16 04:35:00
9:55 PM,60.8,57.2,88,29.89,10.0,Calm,Calm,-,0.02,,Overcast,0,2013-09-16 04:55:00
10:15 PM,60.8,57.2,88,29.89,10.0,Calm,Calm,-,N/A,,Mostly Cloudy,0,2013-09-16 05:15:00
10:35 PM,60.8,57.2,88,29.89,10.0,Calm,Calm,-,N/A,,Overcast,0,2013-09-16 05:35:00
10:55 PM,60.8,57.2,88,29.90,10.0,Calm,Calm,-,N/A,,Overcast,0,2013-09-16 05:55:00
11:15 PM,60.8,57.2,88,29.90,3.0,Calm,Calm,-,0.01,,Overcast,0,2013-09-16 06:15:00
11:35 PM,60.8,57.2,88,29.90,10.0,Calm,Calm,-,0.01,,Overcast,0,2013-09-16 06:35:00
11:55 PM,60.8,57.2,88,29.90,10.0,South,3.5,-,0.01,,Overcast,170,2013-09-16 06:55:00